Regional Weather Roundup
Issued by NWS Grand Forks, ND

Home | Current Version | Previous Version | Graphics & Text | Print | Product List | Glossary On
Versions: 1 2 3 4 5 6 7 8 9 10 11 12 13 14 15 16 17 18 19 20 21 22 23 24 25 26 27 28 29 30 31 32 33 34 35 36 37 38 39 40 41 42 43 44 45 46 47 48 49 50
000
ASUS43 KFGF 271810
RWRFGF
PRAIRIE TO PINES  WEATHER ROUNDUP
NATIONAL WEATHER SERVICE EASTERN NORTH DAKOTA/GRAND FORKS ND
100 PM CDT SUN MAY 27 2018

 **SATELLITE DATA USED TO AUGMENT SKY COVER AT AUTOMATED STATIONS**
 *****  WEATHER ACROSS EASTERN NORTH DAKOTA  *****

CITY           SKY/WX    TMP DP  RH WIND       PRES   REMARKS
GRAND FORKS    CLOUDY    75  64  68 N14       29.82S
6HR MIN TEMP:  60; 6HR MAX TEMP:  75; 6HR PCP:  0.14;

GRAND FRKS AFB PTSUNNY   73  64  73 N15       29.83F
GRAND FRKS NWS   N/A     75  63  65 N7        29.80R
DEVILS LAKE    FAIR      74  60  61 N13       29.87F
6HR MIN TEMP:  62; 6HR MAX TEMP:  74; 6HR PCP:  0.10;

FARGO          FAIR      74  59  59 SE14      29.75F
WAHPETON ARPT  FAIR      79  59  50 SE14      29.80S
$$

 ***** WEATHER ACROSS CENTRAL AND WESTERN NORTH DAKOTA  *****

CITY           SKY/WX    TMP DP  RH WIND       PRES   REMARKS
BISMARCK       FAIR      74  61  63 NE14G24   29.78F
6HR MIN TEMP:  67; 6HR MAX TEMP:  76;

MINOT          FAIR      78  57  48 CALM      29.88R
6HR MIN TEMP:  63; 6HR MAX TEMP:  79;

JAMESTOWN      FAIR      74  62  66 CALM      29.79R
6HR MIN TEMP:  63; 6HR MAX TEMP:  74; 6HR PCP:  0.13;

MINOT AFB      FAIR      77  57  49 CALM      29.88R
GARRISON         N/A     72  61  68 E7        29.87F
WILLISTON      FAIR      75  59  57 SW5       29.94S
6HR MIN TEMP:  62; 6HR MAX TEMP:  76;

DICKINSON      FAIR      75  57  53 N14       29.87S
6HR MIN TEMP:  58; 6HR MAX TEMP:  76;

HETTINGER      FAIR      75  58  55 NW16      29.88F
6HR MIN TEMP:  62; 6HR MAX TEMP:  76; 6HR PCP: TRACE;

$$

 *****  OTHER AIRPORT OBSERVATIONS IN OUR AREA  *****

CITY           SKY/WX    TMP DP  RH WIND       PRES   REMARKS
WALHALLA       FAIR      73  68  83 VRB3      29.87R
GRAFTON AIRPOR FAIR      73  66  78 N7        29.87F
VALLEY CITY AR DRIZZLE   68  68 100 S13G22    29.78R
CANDO          CLOUDY    77  59  53 E6        29.90R
CAVALIER APRT    N/A     73  64  73 NE5       29.86R
GWINNER          N/A     75  66  73 SE20G28   29.78F
SHEYENNE NWR     N/A     82  62  49 SE14      29.95S
ROLLA          MOCLDY    75  63  64 SE12      29.90R
 ***** THE ABOVE OBSERVATIONS ARE NON NWS ARE NOT QUALITY
       CONTROLLED AND MAY MIS-REPORT RAIN FOR SNOW...
$$

  *****  WEATHER ACROSS NORTHERN MINNESOTA  *****

CITY           SKY/WX    TMP DP  RH WIND       PRES   REMARKS
FLAG ISLAND    PTSUNNY   66  61  82 CALM      29.86R
WARROAD        FAIR      70  64  83 NE6       29.88R
ROSEAU         FAIR      75  64  69 N10       29.86R
HALLOCK        FAIR      75  64  69 N6        29.86R
THF RVR FALLS  FAIR      75  60  59 NW10      29.87R
6HR MIN TEMP:  62; 6HR MAX TEMP:  75; 6HR PCP:  0.04;

BAUDETTE         N/A    N/A N/A N/A MISG      29.84R
WASKISH        FAIR      73  63  68 CALM      29.83R
CROOKSTON      FAIR      75  63  64 N14       29.82F
STEPHEN NDAWN    N/A     75  64  69 N3          N/A
GREENBUSH NDAW   N/A     75  61  60 NE3         N/A
$$
  *****  WEATHER ACROSS CENTRAL AND WEST MINNESOTA  *****

CITY           SKY/WX    TMP DP  RH WIND       PRES   REMARKS
FOSSTON        FAIR      75  61  60 S7        29.82R
BEMIDJI        FAIR      73  60  63 CALM      29.82S
6HR MIN TEMP:  58; 6HR MAX TEMP:  73;

PARK RAPIDS    FAIR      69  63  81 SE7       29.83S
6HR MIN TEMP:  59; 6HR MAX TEMP:  70; 6HR PCP:  0.05;

ELBOW LAKE     FAIR      74  62  64 SE20      29.82F
6HR MIN TEMP:  63; 6HR MAX TEMP:  74; 6HR PCP:  0.04;

WADENA         FAIR      72  63  73 SE10      29.83F
DETROIT LAKES  FAIR      75  57  53 W14G21    29.85R
MOORHEAD       FAIR      75  59  57 SE12G26   29.78F
FERGUS FALLS   FAIR      79  61  53 SE13      29.76S
MORRIS MN      FAIR      75  66  73 E20       29.81F
STAPLES        FAIR      70  61  73 E7        29.84F
$$
  *****  WEATHER ELSEWHERE ACROSS MINNESOTA  *****

CITY           SKY/WX    TMP DP  RH WIND       PRES   REMARKS
DULUTH         FAIR      83  58  42 W15G22    29.90R
6HR MIN TEMP:  62; 6HR MAX TEMP:  86;

INTRNTL FALLS  FAIR      79  60  52 CALM      29.83S
6HR MIN TEMP:  58; 6HR MAX TEMP:  80;

ELY            FAIR      79  54  41 W8G21     29.85F
CLOQUET        FAIR      82  48  30 W13G28    29.91S
WHEATON        FAIR      75  64  69 E16       29.82F
BRAINERD       FAIR      68  61  78 S5        29.87F
6HR MIN TEMP:  62; 6HR MAX TEMP:  76; 6HR PCP:  0.03;

HIBBING        FAIR      75  60  59 S3        29.83F
6HR MIN TEMP:  52; 6HR MAX TEMP:  76;

ALEXANDRIA     FAIR      77  61  57 E13       29.87S
6HR MIN TEMP:  67; 6HR MAX TEMP:  78; 6HR PCP:  0.09;

SAINT CLOUD    FAIR      70  57  63 NE10G26   29.82F
6HR MIN TEMP:  62; 6HR MAX TEMP:  79; 6HR PCP: TRACE;

MINNEAPOLIS    CLOUDY    88  58  36 NE12      29.85F
6HR MIN TEMP:  71; 6HR MAX TEMP:  90;

$$

  *****  WEATHER ACROSS SOUTH DAKOTA  *****

CITY           SKY/WX    TMP DP  RH WIND       PRES   REMARKS
SIOUX FALLS    PTSUNNY   94  61  33 SW7       29.83R HX  94
6HR MIN TEMP:  66; 6HR MAX TEMP:  94;

BROOKINGS      FAIR      90  61  37 SE10      29.83F HX  90
WATERTOWN      FAIR      85  57  38 E14G22    29.82F
6HR MIN TEMP:  68; 6HR MAX TEMP:  85;

HURON          FAIR      90  63  40 S14       29.76F HX  91
6HR MIN TEMP:  70; 6HR MAX TEMP:  90;

SISSETON         N/A     78  66  66 SE14      29.80F
ABERDEEN       FAIR      91  59  33 SE21G36   29.74S HX  90
6HR MIN TEMP:  70; 6HR MAX TEMP:  91;

MITCHELL       FAIR      93  66  40 SW12      29.78F HX  96
PIERRE         FAIR      87  61  41 SW10G21   29.73R
6HR MIN TEMP:  68; 6HR MAX TEMP:  87;

MOBRIDGE       FAIR      86  62  44 S8        29.72S
RAPID CITY     FAIR      79  59  50 NW18G25   29.88R
6HR MIN TEMP:  65; 6HR MAX TEMP:  79;

$$

  *****  SOME WEATHER IN NEARBY STATES *****

CITY           SKY/WX    TMP DP  RH WIND       PRES   REMARKS
GLASGOW MT     FAIR      80  48  32 N13G20    29.97R
6HR MIN TEMP:  62; 6HR MAX TEMP:  81;

GREAT FALLS MT FAIR      75  47  36 VRB3      30.07R
6HR MIN TEMP:  57; 6HR MAX TEMP:  75;

CHEYENNE WY    FAIR      69  56  62 N18       29.98F
6HR MIN TEMP:  55; 6HR MAX TEMP:  70;

SCOTTSBLUFF NE FAIR      81  59  47 NE8G20    29.86F
6HR MIN TEMP:  64; 6HR MAX TEMP:  81;

OMAHA NE       FAIR      96  59  29 SW12      29.85F HX  95
6HR MIN TEMP:  73; 6HR MAX TEMP:  97;

DES MOINES IA  FAIR      94  69  44 S5        29.85S HX  99
6HR MIN TEMP:  73; 6HR MAX TEMP:  94;

DAVENPORT IA   FAIR      93  68  43 SW6       29.87F HX  97
6HR MIN TEMP:  71; 6HR MAX TEMP:  93;

CHICAGO IL     FAIR      93  59  31 SW8       29.87S HX  92
6HR MIN TEMP:  75; 6HR MAX TEMP:  93;

EAU CLAIRE WI  FAIR      92  60  34 VRB6      29.87F HX  91
6HR MIN TEMP:  64; 6HR MAX TEMP:  92;

LA CROSSE WI   FAIR      91  69  48 NW5       29.86S HX  96
6HR MIN TEMP:  71; 6HR MAX TEMP:  91;

$$

  *****  SOME NATIONAL WEATHER *****

CITY           SKY/WX    TMP DP  RH WIND       PRES   REMARKS
LA GUARDIA NY  CLOUDY    62  57  83 E21G28    30.04R
6HR MIN TEMP:  61; 6HR MAX TEMP:  65; 6HR PCP:  0.41;

RALEIGH NC     PTSUNNY   85  73  67 S12       30.00F HX  91
6HR MIN TEMP:  72; 6HR MAX TEMP:  85;

ATLANTA GA     CLOUDY    81  68  64 E9        29.95F
6HR MIN TEMP:  72; 6HR MAX TEMP:  82;

NEW ORLEANS LA FAIR      86  73  65 N12       29.83F HX  93
6HR MIN TEMP:  77; 6HR MAX TEMP:  87;

OKLAHOMA CITY  FAIR      87  71  58 SE9       29.87F HX  93
6HR MIN TEMP:  69; 6HR MAX TEMP:  87;

ALBUQUERQUE NM FAIR      78  17  10 W7        29.99F
6HR MIN TEMP:  61; 6HR MAX TEMP:  79;

SALT LAKE CITY PTSUNNY   60  50  69 NW7       29.97R
6HR MIN TEMP:  56; 6HR MAX TEMP:  61; 6HR PCP:  0.02;

LOS ANGELES CA PTSUNNY


USA.gov is the U.S. government's official web portal to all federal, state and local government web resources and services.